Iron Mountain, MI

8:48 AM CDT on July 21, 2017 (GMT -0500)
Ford

Weather History for KIMT - November, 2012

Change the Weather History Date:

Tuesday, November 6, 2012

  Actual Average Record
Temperature  
Mean Temperature 28 °F -  
Max Temperature 36 °F 42 °F 71 °F (2016)
Min Temperature 19 °F 26 °F -1 °F (1951)
Degree Days  
Heating Degree Days 38    
Moisture  
Dew Point 30 °F    
Average Humidity 89    
Maximum Humidity 100    
Minimum Humidity 79    
Precipitation  
Precipitation 0.00 in - - ()
Sea Level Pressure  
Sea Level Pressure 29.92 in    
Wind  
Wind Speed 5 mph (SSE)    
Max Wind Speed 12 mph    
Max Gust Speed 16 mph    
Visibility 5 miles    
Events Rain , Snow    
Averages and records for this station are not official NWS values.
T = Trace of Precipitation, MM = Missing Value Source: NWS Daily Summary

Daily Weather History Graph

Daily Weather History Graph

Search for Another Location

Airport or City:

Trip Planner

Search our weather history database for the weather conditions in past years. The results will help you decide how hot, cold, wet, or windy it might be!

Date:

Astronomy

Nov. 06, 2012 Rise Set
Actual Time 6:40 AM CST 4:31 PM CST
Civil Twilight 6:08 AM CST 5:02 PM CST
Nautical Twilight 5:33 AM CST 5:38 PM CST
Astronomical Twilight 4:58 AM CST 6:13 PM CST
Moon 11:13 PM CST (11/6) 12:29 PM CST (11/6)
Length of Visible Light 10h 53m
Length of Day
9h 50m
Waning Gibbous, 53% of the Moon is Illuminated
Nov 6
Waning Gibbous
Nov 6
Last Quarter
Nov 13
New
Nov 20
First Quarter
Nov 28
Full

Hourly Weather History & Observations

Time (CST) Temp. Windchill Dew Point Humidity Pressure Visibility Wind Dir Wind Speed Gust Speed Precip Events Conditions
12:54 AM 19.9 °F - 18.0 °F 92% 30.09 in 10.0 mi Calm Calm - N/A   Mostly Cloudy
1:54 AM 26.1 °F 20.5 °F 21.9 °F 84% 30.05 in 10.0 mi SE 4.6 mph - N/A   Overcast
2:54 AM 27.0 °F 21.6 °F 23.0 °F 85% 30.03 in 10.0 mi SE 4.6 mph - N/A   Overcast
3:54 AM 28.0 °F 22.8 °F 24.1 °F 85% 30.01 in 10.0 mi SSE 4.6 mph - N/A   Overcast
4:23 AM 28.4 °F 23.3 °F 24.8 °F 86% 29.95 in 10.0 mi SSE 4.6 mph - N/A   Overcast
4:43 AM 28.4 °F 24.6 °F 24.8 °F 86% 29.95 in 9.0 mi SSE 3.5 mph - N/A   Overcast
4:54 AM 30.0 °F 23.2 °F 26.1 °F 85% 29.99 in 8.0 mi South 6.9 mph - N/A   Overcast
5:54 AM 30.9 °F 25.2 °F 28.0 °F 89% 29.98 in 7.0 mi SSE 5.8 mph - N/A   Overcast
6:22 AM 32.0 °F 24.8 °F 26.6 °F 80% 29.92 in 10.0 mi South 8.1 mph - N/A   Overcast
6:32 AM 32.0 °F 24.8 °F 26.6 °F 80% 29.92 in 10.0 mi SSE 8.1 mph - N/A   Overcast
6:54 AM 32.0 °F 26.4 °F 27.0 °F 82% 29.97 in 10.0 mi SSE 5.8 mph - N/A   Overcast
7:54 AM 30.9 °F 24.3 °F 26.1 °F 82% 29.96 in 8.0 mi SE 6.9 mph - N/A   Overcast
8:54 AM 32.0 °F 25.6 °F 27.0 °F 82% 29.95 in 9.0 mi SSE 6.9 mph - N/A   Overcast
9:54 AM 34.0 °F 26.0 °F 28.0 °F 79% 29.95 in 6.0 mi South 10.4 mph - N/A   Haze
10:09 AM 33.8 °F 26.4 °F 28.4 °F 81% 29.89 in 4.0 mi South 9.2 mph - 0.00 in Snow Light Snow
10:24 AM 33.8 °F 27.7 °F 28.4 °F 81% 29.89 in 2.0 mi South 6.9 mph - 0.00 in Snow Light Snow
10:41 AM 33.8 °F 27.0 °F 30.2 °F 87% 29.89 in 1.2 mi South 8.1 mph - 0.00 in Snow Light Snow
10:54 AM 34.0 °F 28.8 °F 30.9 °F 89% 29.94 in 1.8 mi SSE 5.8 mph - 0.00 in Snow Light Snow
11:29 AM 33.8 °F 25.8 °F 32.0 °F 93% 29.87 in 1.5 mi South 10.4 mph - 0.00 in Snow Light Snow
11:46 AM 35.6 °F 29.9 °F 32.0 °F 87% 29.86 in 2.5 mi SSE 6.9 mph - 0.00 in Snow Light Snow
11:54 AM 35.1 °F 26.9 °F 32.0 °F 89% 29.91 in 2.0 mi SSE 11.5 mph 16.1 mph 0.00 in Snow Light Snow
12:44 PM 35.6 °F 28.0 °F 33.8 °F 93% 29.84 in 3.0 mi SSE 10.4 mph - 0.00 in Snow Light Snow
12:54 PM 35.1 °F 28.6 °F 33.1 °F 92% 29.90 in 3.0 mi SSE 8.1 mph - 0.00 in   Overcast
1:54 PM 35.1 °F 28.6 °F 33.1 °F 92% 29.88 in 4.0 mi SE 8.1 mph - 0.00 in   Overcast
2:51 PM 35.6 °F 29.9 °F 33.8 °F 93% 29.83 in 4.0 mi SE 6.9 mph - N/A   Overcast
2:54 PM 36.0 °F 32.1 °F 33.1 °F 89% 29.88 in 4.0 mi SE 4.6 mph - N/A   Overcast
3:52 PM 35.6 °F 30.7 °F 33.8 °F 93% 29.84 in 5.0 mi SE 5.8 mph - N/A   Overcast
3:54 PM 36.0 °F 31.1 °F 33.1 °F 89% 29.88 in 5.0 mi SE 5.8 mph - N/A   Overcast
4:13 PM 35.6 °F 31.7 °F 33.8 °F 93% 29.84 in 5.0 mi SE 4.6 mph - N/A   Overcast
4:32 PM 35.6 °F 31.7 °F 33.8 °F 93% 29.84 in 5.0 mi SE 4.6 mph - N/A   Overcast
4:54 PM 36.0 °F 33.3 °F 32.0 °F 86% 29.89 in 7.0 mi SE 3.5 mph - N/A   Overcast
5:54 PM 35.1 °F - 32.0 °F 89% 29.91 in 6.0 mi Calm Calm - N/A   Overcast
6:26 PM 35.6 °F - 33.8 °F 93% 29.87 in 5.0 mi Calm Calm - 0.00 in Rain Light Rain
6:54 PM 34.0 °F - 33.1 °F 96% 29.92 in 4.0 mi Calm Calm - 0.00 in Rain Light Rain
7:27 PM 35.6 °F - 32.0 °F 87% 29.88 in 4.0 mi Calm Calm - 0.00 in   Overcast
7:54 PM 34.0 °F - 32.0 °F 92% 29.93 in 3.0 mi Calm Calm - 0.00 in   Overcast
8:16 PM 33.8 °F - 32.0 °F 93% 29.88 in 2.5 mi Calm Calm - 0.00 in   Overcast
8:49 PM 33.8 °F - 32.0 °F 93% 29.89 in 2.5 mi Calm Calm - 0.00 in   Overcast
8:54 PM 34.0 °F - 32.0 °F 92% 29.94 in 3.0 mi Calm Calm - 0.00 in   Overcast
9:12 PM 33.8 °F - 32.0 °F 93% 29.89 in 4.0 mi Calm Calm - N/A   Overcast
9:40 PM 33.8 °F - 33.8 °F 100% 29.90 in 3.0 mi Calm Calm - N/A   Overcast
9:54 PM 34.0 °F - 33.1 °F 96% 29.94 in 4.0 mi Calm Calm - N/A   Overcast
10:54 PM 35.1 °F - 33.1 °F 92% 29.94 in 4.0 mi Calm Calm - N/A   Overcast
11:31 PM 35.6 °F 32.8 °F 33.8 °F 93% 29.91 in 4.0 mi ESE 3.5 mph - N/A   Overcast
11:54 PM 35.1 °F 32.2 °F 34.0 °F 96% 29.96 in 4.0 mi SE 3.5 mph - N/A   Overcast